Location: Observatoire de Paris
(48.8363°N, 2.3365°E)
Time: 03:30:51
(UTC+01:00)

Explorer 7 - Visible Passes

Search period start: 06 August 2021 00:00
Search period end: 16 August 2021 00:00
Orbit: 484 x 676 km, 50.3° (Epoch: 05 August)

Date Brightness Start Highest point End Pass type
(mag) Time Alt. Az. Time Alt. Az. Time Alt. Az.
06 Aug 8.5 03:20:23 17° SSE 03:21:01 17° SE 03:23:36 10° E visible
07 Aug 7.9 03:24:26 24° SSE 03:25:07 26° SE 03:28:19 10° E visible
08 Aug 7.3 03:28:28 32° S 03:29:17 37° SSE 03:32:49 10° E visible
09 Aug 6.8 03:32:27 38° SSW 03:33:30 52° SSE 03:37:12 10° ENE visible
10 Aug 9.2 02:00:10 12° E 02:00:10 12° E 02:00:31 10° E visible
10 Aug 6.5 03:36:26 38° SW 03:37:45 71° SSE 03:41:33 10° ENE visible
11 Aug 8.9 02:04:09 16° E 02:04:09 16° E 02:05:10 10° E visible
11 Aug 6.5 03:40:25 32° WSW 03:42:03 89° SSE 03:45:53 10° ENE visible
12 Aug 8.5 02:08:08 21° E 02:08:08 21° E 02:09:38 10° E visible
12 Aug 6.6 03:44:24 26° W 03:46:22 78° N 03:50:12 10° ENE visible
13 Aug 8.2 02:12:06 27° E 02:12:06 27° E 02:14:01 10° ENE visible
13 Aug 6.8 03:48:22 21° W 03:50:44 71° N 03:54:33 10° E visible
14 Aug 7.9 02:16:07 33° E 02:16:07 33° E 02:18:21 10° ENE visible
14 Aug 6.8 03:52:23 18° W 03:55:05 69° N 03:58:55 10° E visible
15 Aug 7.7 02:20:10 40° ENE 02:20:10 40° ENE 02:22:40 10° ENE visible
15 Aug 6.8 03:56:26 15° WNW 03:59:27 72° N 04:03:16 10° E visible
